Location: Dana
(41.8364°N, 106.7042°W)
Time: 12:05:35
(UTC+00:00)

Injun/Solrad 3 - Pass Details

Date: 10 May 2026
Orbit: 867 x 989 km, 66.8° (Epoch: 11 June)

Event Time Altitude Azimuth Distance (km) Brightness Sun altitude
Rises 00:51:11 0° 236° (SW) 3,507 11.6 13.8°
Reaches altitude 10° 00:53:52 10° 245° (WSW) 2,588 11.3 13.3°
Maximum altitude 00:59:21 36° 311° (NW) 1,438 10.0 12.3°
Drops below altitude 10° 01:05:03 10° 17° (NNE) 2,679 10.3 11.3°
Sets 01:07:53 0° 26° (NNE) 3,647 10.9 10.8°
